VOI9255 MMTJ-KLAX

Flight info

Callsign VOI9255
Flight time 0h 44m
Altitude 30000
Route TIJ4B TIJ DCT ASUTA DCT AMMOR OLAAA2
Aircraft A320/M-SDE3FGHIRWY/LB1

Departure

Time 2026-05-05 15:35
Airport General Abelardo L. Rodriguez International Airport (MMTJ)

Arrival

Time 2026-05-05 16:20
Airport Los Angeles International Airport (KLAX)
Time Latitude Longitude Altitude Speed Heading
2026-05-05 15:33 32.54111 -116.95819 498 ft 21 kts 97°
2026-05-05 15:33 32.54093 -116.95641 491 ft 23 kts 99°
2026-05-05 15:33 32.54081 -116.95552 488 ft 8 kts 99°
2026-05-05 15:33 32.54072 -116.95480 495 ft 10 kts 99°
2026-05-05 15:34 32.54018 -116.95434 496 ft 12 kts 184°
2026-05-05 15:34 32.53927 -116.95450 485 ft 7 kts 189°
2026-05-05 15:34 32.53910 -116.95469 488 ft 4 kts 261°
2026-05-05 15:34 32.53912 -116.95529 489 ft 23 kts 279°
2026-05-05 15:35 32.53975 -116.96003 496 ft 90 kts 279°
2026-05-05 15:35 32.54100 -116.96952 490 ft 140 kts 279°
2026-05-05 15:35 32.54272 -116.98212 758 ft 162 kts 280°
2026-05-05 15:35 32.54283 -116.99565 1382 ft 168 kts 253°
2026-05-05 15:36 32.53596 -117.00667 2068 ft 172 kts 213°
2026-05-05 15:36 32.52442 -117.01029 2747 ft 178 kts 184°
2026-05-05 15:36 32.51137 -117.00796 3083 ft 205 kts 163°
2026-05-05 15:36 32.49790 -116.99952 3486 ft 233 kts 144°
2026-05-05 15:37 32.48665 -116.98452 4029 ft 257 kts 120°
2026-05-05 15:37 32.48193 -116.96336 4627 ft 275 kts 88°
2026-05-05 15:37 32.48527 -116.94086 5470 ft 280 kts 77°
2026-05-05 15:37 32.48888 -116.91829 6416 ft 285 kts 80°
2026-05-05 15:38 32.49198 -116.89457 7380 ft 291 kts 81°
2026-05-05 15:38 32.49484 -116.87096 8363 ft 296 kts 81°
2026-05-05 15:38 32.49777 -116.84683 9635 ft 288 kts 81°
2026-05-05 15:38 32.50059 -116.82400 11055 ft 275 kts 81°
2026-05-05 15:39 32.50347 -116.80164 12104 ft 275 kts 81°
2026-05-05 15:39 32.50645 -116.77917 13060 ft 277 kts 81°
2026-05-05 15:39 32.50947 -116.75647 13913 ft 286 kts 81°
2026-05-05 15:39 32.51270 -116.73225 14294 ft 310 kts 81°
2026-05-05 15:40 32.51620 -116.70617 14828 ft 327 kts 81°
2026-05-05 15:40 32.51979 -116.67929 15658 ft 334 kts 81°
2026-05-05 15:40 32.52345 -116.65194 16576 ft 338 kts 81°
2026-05-05 15:40 32.52716 -116.62423 17476 ft 342 kts 81°
2026-05-05 15:41 32.53091 -116.59617 18353 ft 348 kts 81°
2026-05-05 15:41 32.53472 -116.56747 19009 ft 357 kts 81°
2026-05-05 15:41 32.53860 -116.53817 19744 ft 362 kts 82°
2026-05-05 15:41 32.54248 -116.50883 20439 ft 368 kts 82°
2026-05-05 15:42 32.54642 -116.47861 21116 ft 374 kts 82°
2026-05-05 15:42 32.55046 -116.44786 21802 ft 381 kts 82°
2026-05-05 15:42 32.55456 -116.41662 22481 ft 387 kts 82°
2026-05-05 15:42 32.55873 -116.38481 23142 ft 393 kts 83°
2026-05-05 15:43 32.56296 -116.35256 23750 ft 400 kts 83°
2026-05-05 15:43 32.56726 -116.31982 24363 ft 401 kts 83°
2026-05-05 15:43 32.57154 -116.28714 24971 ft 403 kts 84°
2026-05-05 15:43 32.57586 -116.25405 25425 ft 408 kts 85°
2026-05-05 15:44 32.58022 -116.22062 25870 ft 412 kts 85°
2026-05-05 15:44 32.58460 -116.18683 26255 ft 418 kts 85°
2026-05-05 15:44 32.58904 -116.15253 26634 ft 423 kts 85°
2026-05-05 15:44 32.59351 -116.11785 26998 ft 428 kts 86°
2026-05-05 15:45 32.59800 -116.08278 27330 ft 433 kts 86°
2026-05-05 15:45 32.60251 -116.04736 27706 ft 436 kts 87°
2026-05-05 15:45 32.60708 -116.01149 27956 ft 442 kts 86°
2026-05-05 15:45 32.61170 -115.97540 28352 ft 444 kts 86°
2026-05-05 15:46 32.61636 -115.93908 28735 ft 447 kts 88°
2026-05-05 15:46 32.62104 -115.90240 28960 ft 453 kts 88°
2026-05-05 15:46 32.62573 -115.86567 29144 ft 461 kts 88°
2026-05-05 15:46 32.63050 -115.82845 29784 ft 455 kts 89°
2026-05-05 15:47 32.63601 -115.79115 29971 ft 467 kts 82°
2026-05-05 15:47 32.64290 -115.76607 30002 ft 480 kts 69°
2026-05-05 15:47 32.66702 -115.72305 29986 ft 467 kts 41°
2026-05-05 15:47 32.69241 -115.69994 29983 ft 453 kts 19°
2026-05-05 15:48 32.72116 -115.68696 29982 ft 433 kts 358°
2026-05-05 15:48 32.75009 -115.68479 30008 ft 403 kts 339°
2026-05-05 15:48 32.76775 -115.68904 29972 ft 379 kts 325°
2026-05-05 15:48 32.78986 -115.70288 29979 ft 343 kts 304°
2026-05-05 15:49 32.80459 -115.72312 29972 ft 309 kts 283°
2026-05-05 15:49 32.81057 -115.74620 29987 ft 283 kts 265°
2026-05-05 15:49 32.81130 -115.76938 29983 ft 278 kts 259°
2026-05-05 15:49 32.81041 -115.79235 29983 ft 278 kts 259°
2026-05-05 15:50 32.80952 -115.81532 29975 ft 279 kts 259°
2026-05-05 15:50 32.80860 -115.83833 29986 ft 279 kts 259°
2026-05-05 15:50 32.80766 -115.86136 29991 ft 282 kts 259°
2026-05-05 15:50 32.80665 -115.88516 29992 ft 295 kts 259°
2026-05-05 15:51 32.80636 -115.91016 29995 ft 312 kts 265°
2026-05-05 15:51 32.80954 -115.93647 29988 ft 333 kts 274°
2026-05-05 15:51 32.81694 -115.96348 30018 ft 356 kts 282°
2026-05-05 15:51 32.82884 -115.99037 29995 ft 378 kts 289°
2026-05-05 15:52 32.84255 -116.01751 29997 ft 387 kts 289°
2026-05-05 15:52 32.87085 -116.07404 30003 ft 407 kts 290°
2026-05-05 15:53 32.90029 -116.13318 29991 ft 423 kts 291°
2026-05-05 15:53 32.93037 -116.19330 29999 ft 427 kts 292°
2026-05-05 15:54 32.96088 -116.25413 29991 ft 428 kts 292°
2026-05-05 15:54 32.99130 -116.31502 30001 ft 427 kts 292°
2026-05-05 15:55 33.02162 -116.37596 29983 ft 427 kts 292°
2026-05-05 15:55 33.05095 -116.43719 29993 ft 420 kts 287°
2026-05-05 15:56 33.07472 -116.50085 29609 ft 421 kts 286°
2026-05-05 15:56 33.08660 -116.53285 29189 ft 423 kts 287°
2026-05-05 15:56 33.09857 -116.56499 28776 ft 426 kts 287°
2026-05-05 15:56 33.11064 -116.59740 28285 ft 430 kts 288°
2026-05-05 15:57 33.12284 -116.63006 27762 ft 432 kts 289°
2026-05-05 15:57 33.13319 -116.66351 27236 ft 430 kts 281°
2026-05-05 15:57 33.13927 -116.69790 26667 ft 430 kts 277°
2026-05-05 15:57 33.14448 -116.73351 26043 ft 437 kts 277°
2026-05-05 15:58 33.14969 -116.76925 25011 ft 439 kts 277°
2026-05-05 15:58 33.15493 -116.80525 24020 ft 441 kts 278°
2026-05-05 15:58 33.16016 -116.84120 23359 ft 439 kts 278°
2026-05-05 15:58 33.16538 -116.87701 22681 ft 436 kts 279°
2026-05-05 15:59 33.17058 -116.91239 22011 ft 430 kts 279°
2026-05-05 15:59 33.17571 -116.94744 21341 ft 428 kts 279°
2026-05-05 15:59 33.18077 -116.98237 20695 ft 425 kts 279°
2026-05-05 15:59 33.18577 -117.01704 20065 ft 422 kts 279°
2026-05-05 16:00 33.19076 -117.05162 19449 ft 423 kts 279°
2026-05-05 16:00 33.19573 -117.08616 18845 ft 422 kts 279°
2026-05-05 16:00 33.20068 -117.12058 18236 ft 419 kts 279°
2026-05-05 16:00 33.20559 -117.15471 17571 ft 415 kts 279°
2026-05-05 16:01 33.21044 -117.18854 16924 ft 411 kts 279°
2026-05-05 16:01 33.21523 -117.22193 16278 ft 407 kts 279°
2026-05-05 16:01 33.21996 -117.25507 15650 ft 403 kts 279°
2026-05-05 16:01 33.22464 -117.28792 15029 ft 399 kts 279°
2026-05-05 16:02 33.22927 -117.32049 14390 ft 395 kts 279°
2026-05-05 16:02 33.23400 -117.35261 13736 ft 391 kts 280°
2026-05-05 16:02 33.23892 -117.38434 13014 ft 387 kts 280°
2026-05-05 16:02 33.24392 -117.41573 12344 ft 382 kts 281°
2026-05-05 16:03 33.24887 -117.44671 11700 ft 377 kts 281°
2026-05-05 16:03 33.25371 -117.47737 11421 ft 376 kts 281°
2026-05-05 16:03 33.25879 -117.50830 11420 ft 382 kts 284°
2026-05-05 16:03 33.26725 -117.53798 11421 ft 384 kts 294°
2026-05-05 16:04 33.28032 -117.56597 11427 ft 385 kts 302°
2026-05-05 16:04 33.29492 -117.59282 11424 ft 385 kts 302°
2026-05-05 16:04 33.30948 -117.61976 11424 ft 385 kts 302°
2026-05-05 16:04 33.32386 -117.64648 11334 ft 377 kts 302°
2026-05-05 16:05 33.33775 -117.67237 11144 ft 361 kts 302°
2026-05-05 16:05 33.35097 -117.69704 11024 ft 343 kts 302°
2026-05-05 16:05 33.36357 -117.72053 10898 ft 327 kts 302°
2026-05-05 16:05 33.37562 -117.74301 10772 ft 314 kts 301°
2026-05-05 16:06 33.38716 -117.76455 10650 ft 302 kts 301°
2026-05-05 16:06 33.39830 -117.78532 10532 ft 291 kts 301°
2026-05-05 16:06 33.40891 -117.80511 10395 ft 282 kts 301°
2026-05-05 16:06 33.41939 -117.82464 10217 ft 275 kts 301°
2026-05-05 16:07 33.42967 -117.84386 10140 ft 274 kts 301°
2026-05-05 16:07 33.43993 -117.86314 10033 ft 276 kts 301°
2026-05-05 16:07 33.45027 -117.88252 9865 ft 275 kts 302°
2026-05-05 16:07 33.46060 -117.90178 9679 ft 275 kts 302°
2026-05-05 16:08 33.47176 -117.92029 9504 ft 275 kts 311°
2026-05-05 16:08 33.48651 -117.93490 9333 ft 276 kts 327°
2026-05-05 16:08 33.50409 -117.94440 9159 ft 278 kts 338°
2026-05-05 16:08 33.52232 -117.95222 8973 ft 278 kts 338°
2026-05-05 16:09 33.54047 -117.96009 8807 ft 277 kts 338°
2026-05-05 16:09 33.55856 -117.96801 8636 ft 277 kts 338°
2026-05-05 16:09 33.57664 -117.97592 8465 ft 276 kts 338°
2026-05-05 16:09 33.59470 -117.98371 8289 ft 275 kts 338°
2026-05-05 16:10 33.61269 -117.99154 8118 ft 275 kts 338°
2026-05-05 16:10 33.63067 -117.99924 7933 ft 275 kts 339°
2026-05-05 16:10 33.64888 -118.00626 7695 ft 274 kts 341°
2026-05-05 16:10 33.66708 -118.01285 7467 ft 273 kts 342°
2026-05-05 16:11 33.68532 -118.01933 7237 ft 273 kts 342°
2026-05-05 16:11 33.73952 -118.03876 7006 ft 264 kts 341°
2026-05-05 16:12 33.75644 -118.04490 6970 ft 252 kts 341°
2026-05-05 16:12 33.78879 -118.05694 6905 ft 232 kts 339°
2026-05-05 16:13 33.83354 -118.07825 6028 ft 230 kts 336°
2026-05-05 16:13 33.84828 -118.08549 5758 ft 228 kts 337°
2026-05-05 16:13 33.86290 -118.09262 5494 ft 225 kts 336°
2026-05-05 16:14 33.89195 -118.10599 4995 ft 223 kts 346°
2026-05-05 16:14 33.92253 -118.11095 4565 ft 219 kts 338°
2026-05-05 16:15 33.94235 -118.13597 3996 ft 212 kts 283°
2026-05-05 16:15 33.94452 -118.17105 3461 ft 209 kts 272°
2026-05-05 16:16 33.94585 -118.20588 2936 ft 207 kts 272°
2026-05-05 16:16 33.94715 -118.23991 2425 ft 203 kts 272°
2026-05-05 16:17 33.94792 -118.27229 2023 ft 181 kts 266°
2026-05-05 16:17 33.94688 -118.28694 1765 ft 169 kts 264°
2026-05-05 16:18 33.94442 -118.31287 1294 ft 144 kts 263°
2026-05-05 16:18 33.94324 -118.32468 1102 ft 140 kts 263°
2026-05-05 16:18 33.94092 -118.34762 729 ft 137 kts 263°
2026-05-05 16:19 33.93977 -118.35899 550 ft 136 kts 263°
2026-05-05 16:19 33.93861 -118.37019 367 ft 135 kts 263°
2026-05-05 16:19 33.93647 -118.39148 94 ft 104 kts 263°
2026-05-05 16:20 33.93563 -118.40081 96 ft 21 kts 273°
2026-05-05 16:20 33.93605 -118.40277 95 ft 20 kts 276°
2026-05-05 16:21 33.93616 -118.40533 95 ft 15 kts 263°
2026-05-05 16:22 33.93605 -118.40832 95 ft 0 kts 290°
2026-05-05 16:25 33.93661 -118.40915 98 ft 30 kts 339°
2026-05-05 16:25 33.93873 -118.40879 93 ft 8 kts 89°
2026-05-05 16:25 33.93900 -118.40815 95 ft 10 kts 26°
2026-05-05 16:26 33.94068 -118.40832 93 ft 15 kts 353°
2026-05-05 16:26 33.94181 -118.40849 93 ft 3 kts 353°
2026-05-05 16:27 33.94206 -118.40861 93 ft 5 kts 321°
2026-05-05 16:27 33.94216 -118.40903 94 ft 7 kts 244°
2026-05-05 16:27 33.94211 -118.40932 93 ft 0 kts 259°